Flag for Ukraine Weather past 2 weeks in Odesa, Ukraine

Now
43 °F

Sunny.


Feels Like: 37 °F
Forecast: 37 / 40 °F
Wind: 10 mph from Northeast

Location: Odesa Airport

Current Time: Mar 5, 2015 at 11:08:50 AM

Latest Report: Mar 5, 2015 at 10:30 AM


Visibility: 10 mi

Pressure: 30.30 "Hg

Humidity: 57%

Dew point: 28 °F

Location of OdesaLocation

Historic Weather in Odesa — Graph

°F

Odesa temperature yesterday

Maximum temperature yesterday: 46 °F (at 1:30 PM)
Minimum temperature yesterday: 34 °F (at 3:30 AM)
Average temperature yesterday: 39 °F

Past Weeks' High & Low Weather Summary

 TemperatureHumidityPressure
High54 °F (Feb 27, 2:00 PM)100% (Feb 20, 9:00 PM)30.63 "Hg (Feb 20, 9:00 PM)
Low16 °F (Feb 19, 3:30 AM)34% (Feb 18, 12:30 PM)29.83 "Hg (Mar 3, 3:00 AM)
Average39 °F83%30.07 "Hg
* Reported Feb 18 10:00 AM — Mar 5 10:00 AM, Odesa, Weather by CustomWeather, © 2015

Note: Actual official high and low records may vary slightly from our data, if they occured in-between our weather recording intervals... More about our weather records

Advertising

Odesa weather history for previous 24 hours

 ConditionsComfort  
Time TempWeatherWind HumidityBarometerVisibility
10:00 AM
Thu, Mar 5
43 °FSunny.10 mph61%30.30 "Hg10 mi
9:30 AM41 °FSunny.13 mph57%30.30 "Hg10 mi
9:00 AM39 °FSunny.10 mph65%30.30 "Hg10 mi
8:30 AM39 °FSunny.10 mph70%30.30 "Hg10 mi
8:00 AM37 °FSunny.8 mph75%30.27 "Hg10 mi
7:30 AM32 °FSunny.6 mph75%30.27 "Hg10 mi
7:00 AM30 °FSunny.8 mph69%30.27 "Hg10 mi
6:30 AM32 °FSunny.6 mph69%30.24 "Hg10 mi
6:00 AM32 °FClear.3 mph69%30.24 "Hg10 mi
5:30 AM32 °FClear.6 mph75%30.24 "Hg10 mi
5:00 AM32 °FClear.No wind75%30.24 "Hg10 mi
4:00 AM32 °FClear.No wind75%30.21 "Hg10 mi
3:30 AM32 °FClear.No wind75%30.21 "Hg10 mi
3:00 AM30 °FClear.No wind75%30.21 "Hg10 mi
2:30 AM30 °FClear.No wind80%30.21 "Hg10 mi
2:00 AM30 °FClear.No wind80%30.21 "Hg10 mi
1:30 AM30 °FClear.No wind80%30.21 "Hg10 mi
1:00 AM32 °FClear.No wind80%30.21 "Hg10 mi
12:30 AM32 °FClear.No wind80%30.21 "Hg10 mi
11:00 PM
Wed, Mar 4
34 °FClear.No wind75%30.21 "Hg10 mi
10:30 PM34 °FClear.No wind75%30.18 "Hg10 mi
10:00 PM34 °FClear.No wind75%30.18 "Hg10 mi
9:30 PM36 °FClear.No wind70%30.21 "Hg10 mi
9:00 PM36 °FClear.1 mph70%30.21 "Hg10 mi
8:30 PM36 °FClear.3 mph65%30.21 "Hg10 mi
8:00 PM37 °FClear.6 mph60%30.21 "Hg10 mi
7:30 PM39 °FClear.3 mph61%30.21 "Hg10 mi
7:00 PM39 °FClear.6 mph61%30.18 "Hg10 mi
6:30 PM41 °FClear.8 mph57%30.18 "Hg10 mi
6:00 PM43 °FPassing clouds.8 mph53%30.18 "HgN/A
5:30 PM45 °FSunny.10 mph49%30.18 "Hg10 mi
5:00 PM46 °FSunny.15 mph50%30.15 "Hg10 mi
4:30 PM46 °FPartly sunny.15 mph46%30.15 "HgN/A
4:00 PM46 °FPartly sunny.15 mph46%30.15 "HgN/A
3:30 PM46 °FPartly sunny.17 mph46%30.15 "HgN/A
3:00 PM46 °FPartly sunny.17 mph46%30.15 "HgN/A
2:30 PM46 °FPartly sunny.17 mph43%30.15 "HgN/A
2:00 PM46 °FPartly sunny.20 mph43%30.15 "HgN/A
1:30 PM46 °FPartly sunny.20 mph50%30.15 "HgN/A
1:00 PM45 °FPartly sunny.17 mph57%30.15 "HgN/A
12:30 PM45 °FPartly sunny.17 mph57%30.15 "HgN/A
12:00 PM43 °FPartly sunny.20 mph66%30.15 "HgN/A
11:30 AM43 °FPartly sunny.17 mph61%30.15 "HgN/A
11:00 AM43 °FScattered clouds.17 mph66%30.15 "HgN/A
Weather by CustomWeather, © 2015

See weather overviewHow to use our weather pages